| time (UTC) | temp F | wind direction | speed knots | gust knots | rain 1hr in | rain 24hr in | rain mn in | humidity % | barometer mb |
| 20260508232045 | 66 | 181 | 0.0 | 4.3 | 0.00 | 0.00 | 0.00 | 54 | 1009.3 |
| 20260508231506 | 67 | 250 | 2.6 | 5.2 | 0.00 | 0.00 | 0.00 | 53 | 1009.3 |
| 20260508231056 | 66 | 335 | 2.6 | 4.3 | 0.00 | 0.00 | 0.00 | 53 | 1009.2 |
| 20260508230546 | 66 | 301 | 1.7 | 7.0 | 0.00 | 0.00 | 0.00 | 54 | 1009.3 |
| 20260508230103 | 66 | 265 | 4.3 | 10.4 | 0.00 | 0.00 | 0.00 | 53 | 1009.4 |
| 20260508225549 | 67 | 259 | 2.6 | 10.4 | 0.00 | 0.00 | 0.00 | 52 | 1009.3 |
| 20260508225037 | 66 | 103 | 0.9 | 5.2 | 0.00 | 0.00 | 0.00 | 52 | 1009.3 |
| 20260508224609 | 66 | 260 | 2.6 | 5.2 | 0.00 | 0.00 | 0.00 | 53 | 1009.4 |
| 20260508224043 | 66 | 131 | 2.6 | 7.0 | 0.00 | 0.00 | 0.00 | 54 | 1009.3 |
| 20260508223535 | 66 | 311 | 3.5 | 7.0 | 0.00 | 0.00 | 0.00 | 53 | 1009.4 |
| 20260508223047 | 65 | 32 | 0.0 | 4.3 | 0.00 | 0.00 | 0.00 | 55 | 1009.4 |
| 20260508222533 | 66 | 286 | 1.7 | 4.3 | 0.00 | 0.00 | 0.00 | 53 | 1009.4 |
| 20260508222016 | 66 | 53 | 1.7 | 7.0 | 0.00 | 0.00 | 0.00 | 56 | 1009.5 |
| 20260508221536 | 66 | 271 | 3.5 | 7.0 | 0.00 | 0.00 | 0.00 | 54 | 1009.4 |
| 20260508221022 | 66 | 315 | 2.6 | 7.0 | 0.00 | 0.00 | 0.00 | 53 | 1009.4 |
| 20260508220505 | 66 | 242 | 0.9 | 7.0 | 0.00 | 0.00 | 0.00 | 53 | 1009.5 |
| 20260508220031 | 66 | 309 | 1.7 | 7.8 | 0.00 | 0.00 | 0.00 | 54 | 1009.5 |
| 20260508215513 | 66 | 161 | 4.3 | 7.8 | 0.00 | 0.00 | 0.00 | 56 | 1009.4 |
| 20260508215002 | 65 | 101 | 1.7 | 3.5 | 0.00 | 0.00 | 0.00 | 55 | 1009.4 |
| 20260508214531 | 64 | 286 | 0.0 | 6.1 | 0.00 | 0.00 | 0.00 | 54 | 1009.4 |
| 20260508214023 | 65 | 286 | 1.7 | 6.1 | 0.00 | 0.00 | 0.00 | 54 | 1009.5 |
| 20260508213507 | 66 | 209 | 0.9 | 5.2 | 0.00 | 0.00 | 0.00 | 54 | 1009.6 |
| 20260508213028 | 65 | 296 | 1.7 | 5.2 | 0.00 | 0.00 | 0.00 | 56 | 1009.5 |
| 20260508212519 | 65 | 188 | 0.9 | 7.0 | 0.00 | 0.00 | 0.00 | 58 | 1009.4 |
| 20260508212005 | 65 | 61 | 1.7 | 4.3 | 0.00 | 0.00 | 0.00 | 57 | 1009.3 |
| 20260508211526 | 64 | 360 | 1.7 | 2.6 | 0.00 | 0.00 | 0.00 | 55 | 1009.4 |
| 20260508211016 | 64 | 304 | 0.0 | 6.1 | 0.00 | 0.00 | 0.00 | 57 | 1009.4 |
| 20260508210506 | 64 | 296 | 1.7 | 6.1 | 0.00 | 0.00 | 0.00 | 58 | 1009.6 |
| 20260508210033 | 63 | 236 | 0.9 | 6.1 | 0.00 | 0.00 | 0.00 | 58 | 1009.5 |
| 20260508205521 | 63 | 275 | 0.9 | 5.2 | 0.00 | 0.00 | 0.00 | 56 | 1009.5 |
| 20260508205110 | 64 | 239 | 0.9 | 5.2 | 0.00 | 0.00 | 0.00 | 56 | 1009.6 |
| 20260508204048 | 64 | 219 | 0.0 | 4.3 | 0.00 | 0.00 | 0.00 | 57 | 1009.6 |
| 20260508203509 | 63 | 344 | 0.9 | 5.2 | 0.00 | 0.00 | 0.00 | 56 | 1009.4 |
| 20260508203011 | 63 | 199 | 0.0 | 4.3 | 0.00 | 0.00 | 0.00 | 58 | 1009.4 |
| 20260508202600 | 63 | 319 | 0.9 | 5.2 | 0.00 | 0.00 | 0.00 | 58 | 1009.4 |
| 20260508202047 | 62 | 39 | 1.7 | 5.2 | 0.00 | 0.00 | 0.00 | 58 | 1009.4 |
| 20260508201517 | 62 | 30 | 0.0 | 2.6 | 0.00 | 0.00 | 0.00 | 57 | 1009.6 |
| 20260508201009 | 62 | 150 | 0.0 | 5.2 | 0.00 | 0.00 | 0.00 | 58 | 1009.6 |
| 20260508200555 | 62 | 128 | 2.6 | 5.2 | 0.00 | 0.00 | 0.00 | 57 | 1009.6 |
| 20260508200015 | 63 | 158 | 2.6 | 5.2 | 0.00 | 0.00 | 0.00 | 57 | 1009.6 |
| 20260508195559 | 62 | 38 | 1.7 | 5.2 | 0.00 | 0.00 | 0.00 | 57 | 1009.5 |
| 20260508195017 | 60 | 221 | 0.0 | 3.5 | 0.00 | 0.00 | 0.00 | 62 | 1009.7 |
| 20260508194545 | 60 | 186 | 0.9 | 3.5 | 0.00 | 0.00 | 0.00 | 60 | 1009.7 |
| 20260508194033 | 60 | 83 | 0.9 | 3.5 | 0.00 | 0.00 | 0.00 | 60 | 1009.7 |
| 20260508193519 | 60 | 143 | 0.9 | 3.5 | 0.00 | 0.00 | 0.00 | 62 | 1009.7 |
| 20260508193115 | 60 | 167 | 0.0 | 4.3 | 0.00 | 0.00 | 0.00 | 62 | 1009.7 |
| 20260508192527 | 60 | 273 | 1.7 | 4.3 | 0.00 | 0.00 | 0.00 | 61 | 1009.8 |
| 20260508192017 | 61 | 202 | 0.0 | 6.1 | 0.00 | 0.00 | 0.00 | 59 | 1009.8 |
| 20260508191532 | 62 | 280 | 1.7 | 6.1 | 0.00 | 0.00 | 0.00 | 60 | 1009.7 |
| 20260508191002 | 61 | 168 | 0.9 | 4.3 | 0.00 | 0.00 | 0.00 | 61 | 1009.7 |
| 20260508190535 | 61 | 171 | 0.9 | 7.8 | 0.00 | 0.00 | 0.00 | 61 | 1009.7 |
| 20260508185517 | 60 | 201 | 5.2 | 7.8 | 0.00 | 0.00 | 0.00 | 61 | 1009.7 |
| 20260508185002 | 60 | 232 | 1.7 | 3.5 | 0.00 | 0.00 | 0.00 | 64 | 1009.7 |
| 20260508184517 | 59 | 355 | 0.0 | 7.8 | 0.00 | 0.00 | 0.00 | 63 | 1009.8 |
| 20260508184002 | 58 | 159 | 3.5 | 7.8 | 0.00 | 0.00 | 0.00 | 66 | 1009.9 |
| 20260508183553 | 58 | 85 | 1.7 | 3.5 | 0.00 | 0.00 | 0.00 | 64 | 1009.9 |
| 20260508183019 | 59 | 208 | 0.9 | 6.1 | 0.00 | 0.00 | 0.00 | 63 | 1009.8 |
| 20260508182600 | 60 | 181 | 0.9 | 6.1 | 0.00 | 0.00 | 0.00 | 62 | 1009.9 |
| 20260508182038 | 60 | 185 | 1.7 | 6.1 | 0.00 | 0.00 | 0.00 | 64 | 1009.8 |
| 20260508181540 | 59 | 128 | 1.7 | 7.0 | 0.00 | 0.00 | 0.00 | 63 | 1009.7 |
| 20260508181018 | 59 | 126 | 1.7 | 7.0 | 0.00 | 0.00 | 0.00 | 64 | 1009.7 |
| 20260508180557 | 59 | 195 | 1.7 | 7.0 | 0.00 | 0.00 | 0.00 | 64 | 1009.7 |
| 20260508180012 | 58 | 159 | 3.5 | 7.0 | 0.00 | 0.00 | 0.00 | 65 | 1009.6 |
| 20260508175555 | 57 | 150 | 1.7 | 6.1 | 0.00 | 0.00 | 0.00 | 65 | 1009.6 |
| 20260508175043 | 58 | 236 | 3.5 | 7.0 | 0.00 | 0.00 | 0.00 | 65 | 1009.5 |
| 20260508174503 | 58 | 317 | 2.6 | 7.0 | 0.00 | 0.00 | 0.00 | 65 | 1009.5 |
| 20260508174058 | 58 | 240 | 2.6 | 7.0 | 0.00 | 0.00 | 0.00 | 68 | 1009.5 |
| 20260508173542 | 57 | 219 | 0.9 | 7.0 | 0.00 | 0.00 | 0.00 | 67 | 1009.4 |
| 20260508173003 | 57 | 349 | 0.9 | 6.1 | 0.00 | 0.00 | 0.00 | 69 | 1009.5 |
| 20260508172551 | 56 | 49 | 0.9 | 8.7 | 0.00 | 0.00 | 0.00 | 67 | 1009.4 |
| 20260508172039 | 56 | 148 | 1.7 | 8.7 | 0.00 | 0.00 | 0.00 | 69 | 1009.3 |
| 20260508171515 | 56 | 245 | 1.7 | 6.1 | 0.00 | 0.00 | 0.00 | 69 | 1009.4 |
| 20260508171059 | 55 | 131 | 0.9 | 4.3 | 0.00 | 0.00 | 0.00 | 71 | 1009.4 |
| 20260508170546 | 55 | 166 | 0.9 | 4.3 | 0.00 | 0.00 | 0.00 | 71 | 1009.4 |
| 20260508170006 | 55 | 338 | 0.0 | 7.0 | 0.00 | 0.00 | 0.00 | 70 | 1009.3 |
| 20260508165555 | 55 | 333 | 0.9 | 7.0 | 0.00 | 0.00 | 0.00 | 70 | 1009.3 |
| 20260508165042 | 55 | 10 | 0.0 | 5.2 | 0.00 | 0.00 | 0.00 | 70 | 1009.2 |
| 20260508164503 | 55 | 178 | 0.0 | 2.6 | 0.00 | 0.00 | 0.00 | 69 | 1009.2 |
| 20260508164053 | 55 | 184 | 0.9 | 2.6 | 0.00 | 0.00 | 0.00 | 69 | 1009.1 |
| 20260508163530 | 55 | 172 | 0.9 | 6.1 | 0.00 | 0.00 | 0.00 | 70 | 1009.1 |
| 20260508163057 | 55 | 186 | 1.7 | 6.1 | 0.00 | 0.00 | 0.00 | 69 | 1009.1 |
| 20260508162528 | 55 | 201 | 1.7 | 7.0 | 0.00 | 0.00 | 0.00 | 71 | 1008.9 |
| 20260508162016 | 54 | 184 | 0.9 | 5.2 | 0.00 | 0.00 | 0.00 | 72 | 1008.7 |
| 20260508161543 | 54 | 183 | 1.7 | 5.2 | 0.00 | 0.00 | 0.00 | 71 | 1008.8 |
| 20260508161025 | 54 | 210 | 0.9 | 7.0 | 0.00 | 0.00 | 0.00 | 70 | 1008.9 |
| 20260508160512 | 54 | 219 | 0.9 | 7.0 | 0.00 | 0.00 | 0.00 | 71 | 1008.8 |
| 20260508160043 | 54 | 192 | 1.7 | 5.2 | 0.00 | 0.00 | 0.00 | 71 | 1008.8 |
| 20260508155525 | 54 | 231 | 0.9 | 2.6 | 0.00 | 0.00 | 0.00 | 72 | 1008.9 |
| 20260508155013 | 54 | 210 | 0.9 | 2.6 | 0.00 | 0.00 | 0.00 | 72 | 1008.7 |
| 20260508154544 | 54 | 62 | 0.9 | 2.6 | 0.00 | 0.00 | 0.00 | 72 | 1008.7 |
| 20260508154031 | 54 | 220 | 0.0 | 2.6 | 0.00 | 0.00 | 0.00 | 73 | 1008.7 |
| 20260508152553 | 52 | 28 | 0.0 | 2.6 | 0.00 | 0.00 | 0.00 | 80 | 1008.7 |
| 20260508152041 | 52 | 28 | 0.0 | 2.6 | 0.00 | 0.00 | 0.00 | 80 | 1008.6 |
| 20260508151506 | 51 | 20 | 0.0 | 2.6 | 0.00 | 0.00 | 0.00 | 81 | 1008.6 |
| 20260508151054 | 51 | 20 | 0.9 | 2.6 | 0.00 | 0.00 | 0.00 | 80 | 1008.6 |
| 20260508150544 | 51 | 20 | 0.9 | 2.6 | 0.00 | 0.00 | 0.00 | 80 | 1008.5 |
| 20260508150013 | 50 | 5 | 0.9 | 2.6 | 0.00 | 0.00 | 0.00 | 81 | 1008.7 |
| 20260508145601 | 50 | 5 | 0.0 | 1.7 | 0.00 | 0.00 | 0.00 | 81 | 1008.5 |
| 20260508145048 | 50 | 5 | 0.0 | 0.9 | 0.00 | 0.00 | 0.00 | 81 | 1008.6 |
| 20260508144510 | 50 | 5 | 0.0 | 0.9 | 0.00 | 0.00 | 0.00 | 82 | 1008.6 |
| 20260508144103 | 50 | 5 | 0.0 | 0.9 | 0.00 | 0.00 | 0.00 | 82 | 1008.7 |
| 20260508143549 | 50 | 5 | 0.0 | 1.7 | 0.00 | 0.00 | 0.00 | 82 | 1008.6 |
| 20260508143009 | 50 | 5 | 0.0 | 3.5 | 0.00 | 0.00 | 0.00 | 83 | 1008.5 |
| 20260508142600 | 49 | 5 | 0.9 | 3.5 | 0.00 | 0.00 | 0.00 | 83 | 1008.6 |
| 20260508142049 | 49 | 321 | 0.9 | 1.7 | 0.00 | 0.00 | 0.00 | 83 | 1008.6 |
| 20260508141512 | 49 | 321 | 0.9 | 2.6 | 0.00 | 0.00 | 0.00 | 84 | 1008.6 |
| 20260508141100 | 49 | 321 | 0.9 | 2.6 | 0.00 | 0.00 | 0.00 | 84 | 1008.6 |
| 20260508140548 | 48 | 267 | 0.9 | 1.7 | 0.00 | 0.00 | 0.00 | 85 | 1008.5 |
| 20260508140006 | 48 | 294 | 0.9 | 1.7 | 0.00 | 0.00 | 0.00 | 85 | 1008.5 |
| 20260508135557 | 48 | 294 | 0.0 | 0.9 | 0.00 | 0.00 | 0.00 | 84 | 1008.5 |
| 20260508135045 | 48 | 294 | 0.0 | 0.0 | 0.00 | 0.00 | 0.00 | 84 | 1008.1 |
| 20260508134514 | 47 | 294 | 0.0 | 0.0 | 0.00 | 0.00 | 0.00 | 84 | 1008.0 |
| 20260508134002 | 47 | 294 | 0.0 | 0.9 | 0.00 | 0.00 | 0.00 | 84 | 1007.9 |
| 20260508133553 | 47 | 294 | 0.0 | 1.7 | 0.00 | 0.00 | 0.00 | 84 | 1007.8 |
| 20260508133012 | 48 | 294 | 0.0 | 2.6 | 0.00 | 0.00 | 0.00 | 84 | 1007.7 |
| 20260508132602 | 48 | 294 | 0.9 | 3.5 | 0.00 | 0.00 | 0.00 | 84 | 1007.7 |
| 20260508132049 | 48 | 291 | 0.9 | 3.5 | 0.00 | 0.00 | 0.00 | 85 | 1007.7 |
| 20260508131508 | 48 | 271 | 0.0 | 2.6 | 0.00 | 0.00 | 0.00 | 85 | 1007.5 |
| 20260508131102 | 48 | 271 | 0.0 | 2.6 | 0.00 | 0.00 | 0.00 | 84 | 1007.3 |
| 20260508130550 | 48 | 197 | 0.0 | 0.9 | 0.00 | 0.00 | 0.00 | 84 | 1007.2 |
| 20260508130006 | 48 | 268 | 0.0 | 2.6 | 0.00 | 0.00 | 0.00 | 84 | 1007.2 |
| 20260508125557 | 48 | 268 | 0.9 | 2.6 | 0.00 | 0.00 | 0.00 | 84 | 1007.1 |
| 20260508125045 | 48 | 268 | 0.0 | 2.6 | 0.00 | 0.00 | 0.00 | 83 | 1006.9 |
| 20260508124506 | 48 | 268 | 0.0 | 2.6 | 0.00 | 0.00 | 0.00 | 83 | 1006.9 |
| 20260508124057 | 49 | 266 | 0.0 | 0.0 | 0.00 | 0.00 | 0.00 | 83 | 1006.7 |
| 20260508123543 | 49 | 266 | 0.0 | 0.0 | 0.00 | 0.00 | 0.00 | 83 | 1006.6 |
| 20260508123005 | 49 | 266 | 0.0 | 0.0 | 0.00 | 0.00 | 0.00 | 83 | 1006.6 |
| 20260508122554 | 49 | 266 | 0.0 | 0.0 | 0.00 | 0.00 | 0.00 | 84 | 1006.5 |
| 20260508122042 | 49 | 266 | 0.0 | 0.0 | 0.00 | 0.00 | 0.00 | 84 | 1006.5 |
| 20260508121503 | 49 | 266 | 0.0 | 0.0 | 0.00 | 0.00 | 0.00 | 84 | 1006.3 |
| 20260508121055 | 49 | 266 | 0.0 | 0.0 | 0.00 | 0.00 | 0.00 | 84 | 1006.3 |
| 20260508120542 | 49 | 266 | 0.0 | 0.0 | 0.00 | 0.00 | 0.00 | 84 | 1006.4 |
| 20260508120010 | 50 | 266 | 0.0 | 0.0 | 0.00 | 0.00 | 0.00 | 84 | 1006.3 |
| 20260508115601 | 50 | 266 | 0.0 | 0.0 | 0.00 | 0.00 | 0.00 | 84 | 1006.3 |
| 20260508115049 | 50 | 266 | 0.0 | 0.0 | 0.00 | 0.00 | 0.00 | 84 | 1006.4 |
| 20260508114504 | 50 | 266 | 0.0 | 0.0 | 0.00 | 0.00 | 0.00 | 83 | 1006.2 |
| 20260508114055 | 50 | 266 | 0.0 | 0.0 | 0.00 | 0.00 | 0.00 | 83 | 1006.2 |
| 20260508113543 | 50 | 266 | 0.0 | 0.0 | 0.00 | 0.00 | 0.00 | 83 | 1006.2 |
| 20260508113003 | 50 | 266 | 0.0 | 0.0 | 0.00 | 0.00 | 0.00 | 83 | 1006.1 |
| 20260508112556 | 50 | 266 | 0.0 | 0.0 | 0.00 | 0.00 | 0.00 | 83 | 1006.0 |
| 20260508112038 | 50 | 266 | 0.0 | 0.0 | 0.00 | 0.00 | 0.00 | 83 | 1005.8 |
| 20260508111507 | 50 | 266 | 0.0 | 0.0 | 0.00 | 0.00 | 0.00 | 83 | 1005.8 |
| 20260508111059 | 50 | 266 | 0.0 | 0.0 | 0.00 | 0.00 | 0.00 | 83 | 1005.8 |
| 20260508110546 | 51 | 266 | 0.0 | 0.0 | 0.00 | 0.00 | 0.00 | 82 | 1005.7 |
| 20260508110009 | 51 | 266 | 0.0 | 0.0 | 0.00 | 0.00 | 0.00 | 82 | 1005.5 |
| 20260508105557 | 51 | 266 | 0.0 | 0.0 | 0.00 | 0.00 | 0.00 | 82 | 1005.5 |
| 20260508105044 | 51 | 266 | 0.0 | 0.0 | 0.00 | 0.00 | 0.00 | 82 | 1005.4 |
| 20260508104504 | 51 | 266 | 0.0 | 0.0 | 0.00 | 0.00 | 0.00 | 82 | 1005.4 |
| 20260508104054 | 51 | 266 | 0.0 | 0.0 | 0.00 | 0.00 | 0.00 | 82 | 1005.4 |
| 20260508103543 | 51 | 266 | 0.0 | 0.0 | 0.00 | 0.00 | 0.00 | 82 | 1005.3 |
| 20260508103003 | 51 | 266 | 0.0 | 0.0 | 0.00 | 0.00 | 0.00 | 81 | 1005.3 |
| 20260508102552 | 51 | 266 | 0.0 | 0.0 | 0.00 | 0.00 | 0.00 | 81 | 1005.3 |
| 20260508102040 | 51 | 266 | 0.0 | 0.0 | 0.00 | 0.00 | 0.00 | 81 | 1005.3 |
| 20260508101510 | 51 | 266 | 0.0 | 0.0 | 0.00 | 0.00 | 0.00 | 81 | 1005.3 |
| 20260508101057 | 51 | 266 | 0.0 | 0.0 | 0.00 | 0.00 | 0.00 | 80 | 1005.3 |
| 20260508100544 | 51 | 266 | 0.0 | 0.0 | 0.00 | 0.00 | 0.00 | 80 | 1005.3 |
| 20260508100005 | 51 | 266 | 0.0 | 0.0 | 0.00 | 0.00 | 0.00 | 80 | 1005.2 |
| 20260508095556 | 52 | 266 | 0.0 | 0.0 | 0.00 | 0.00 | 0.00 | 80 | 1005.2 |
| 20260508095044 | 52 | 266 | 0.0 | 0.0 | 0.00 | 0.00 | 0.00 | 80 | 1005.2 |
| 20260508094505 | 52 | 266 | 0.0 | 0.0 | 0.00 | 0.00 | 0.00 | 80 | 1005.1 |
| 20260508094055 | 52 | 266 | 0.0 | 0.0 | 0.00 | 0.00 | 0.00 | 79 | 1005.1 |
| 20260508093544 | 52 | 266 | 0.0 | 0.0 | 0.00 | 0.00 | 0.00 | 79 | 1005.0 |
| 20260508093004 | 52 | 266 | 0.0 | 0.0 | 0.00 | 0.00 | 0.00 | 79 | 1004.8 |
| 20260508092554 | 52 | 266 | 0.0 | 0.0 | 0.00 | 0.00 | 0.00 | 78 | 1004.8 |
| 20260508092042 | 52 | 266 | 0.0 | 0.0 | 0.00 | 0.00 | 0.00 | 78 | 1004.8 |
| 20260508091504 | 52 | 266 | 0.0 | 0.0 | 0.00 | 0.00 | 0.00 | 78 | 1004.8 |
| 20260508091053 | 52 | 266 | 0.0 | 0.0 | 0.00 | 0.00 | 0.00 | 78 | 1004.9 |
| 20260508090545 | 52 | 266 | 0.0 | 0.0 | 0.00 | 0.00 | 0.00 | 78 | 1004.9 |
| 20260508090003 | 52 | 266 | 0.0 | 0.0 | 0.00 | 0.00 | 0.00 | 78 | 1004.8 |
| 20260508085552 | 52 | 266 | 0.0 | 0.0 | 0.00 | 0.00 | 0.00 | 78 | 1004.8 |
| 20260508085042 | 52 | 266 | 0.0 | 0.0 | 0.00 | 0.00 | 0.00 | 78 | 1004.8 |
| 20260508084602 | 52 | 266 | 0.0 | 0.0 | 0.00 | 0.00 | 0.00 | 78 | 1004.8 |
| 20260508084051 | 53 | 266 | 0.0 | 0.0 | 0.00 | 0.00 | 0.00 | 78 | 1004.7 |
| 20260508083538 | 53 | 266 | 0.0 | 0.0 | 0.00 | 0.00 | 0.00 | 78 | 1004.6 |
| 20260508083016 | 53 | 266 | 0.0 | 0.0 | 0.00 | 0.00 | 0.00 | 78 | 1004.6 |
| 20260508082557 | 53 | 266 | 0.0 | 0.0 | 0.00 | 0.00 | 0.00 | 78 | 1004.6 |
| 20260508082049 | 53 | 266 | 0.0 | 0.0 | 0.00 | 0.00 | 0.00 | 78 | 1004.6 |
| 20260508081509 | 53 | 266 | 0.0 | 0.0 | 0.00 | 0.00 | 0.00 | 78 | 1004.6 |
| 20260508081057 | 53 | 266 | 0.0 | 0.0 | 0.00 | 0.00 | 0.00 | 78 | 1004.5 |
| 20260508080546 | 53 | 266 | 0.0 | 0.0 | 0.00 | 0.00 | 0.00 | 77 | 1004.6 |
| 20260508080013 | 53 | 266 | 0.0 | 0.0 | 0.00 | 0.00 | 0.00 | 77 | 1004.5 |
| 20260508075601 | 53 | 266 | 0.0 | 0.0 | 0.00 | 0.00 | 0.00 | 77 | 1004.5 |
| 20260508075049 | 53 | 266 | 0.0 | 0.0 | 0.00 | 0.00 | 0.00 | 77 | 1004.5 |
| 20260508074510 | 54 | 266 | 0.0 | 1.7 | 0.00 | 0.00 | 0.00 | 77 | 1004.5 |
| 20260508074101 | 54 | 266 | 0.0 | 1.7 | 0.00 | 0.00 | 0.00 | 76 | 1004.5 |
| 20260508073549 | 54 | 266 | 0.9 | 1.7 | 0.00 | 0.00 | 0.00 | 76 | 1004.5 |
| 20260508073005 | 54 | 266 | 0.9 | 1.7 | 0.00 | 0.00 | 0.00 | 76 | 1004.4 |
| 20260508072556 | 54 | 266 | 0.9 | 1.7 | 0.00 | 0.00 | 0.00 | 76 | 1004.4 |
| 20260508072043 | 54 | 266 | 0.9 | 1.7 | 0.00 | 0.00 | 0.00 | 75 | 1004.5 |
| 20260508071513 | 54 | 266 | 0.9 | 1.7 | 0.00 | 0.00 | 0.00 | 75 | 1004.4 |
| 20260508071002 | 54 | 266 | 0.9 | 1.7 | 0.00 | 0.00 | 0.00 | 75 | 1004.4 |
| 20260508070552 | 55 | 266 | 0.9 | 2.6 | 0.00 | 0.00 | 0.00 | 74 | 1004.4 |
| 20260508070010 | 55 | 266 | 0.9 | 2.6 | 0.00 | 0.00 | 0.00 | 74 | 1004.4 |
| 20260508065559 | 55 | 266 | 1.7 | 2.6 | 0.00 | 0.00 | 0.00 | 74 | 1004.4 |
| 20260508065046 | 55 | 266 | 0.9 | 2.6 | 0.00 | 0.00 | 0.00 | 74 | 1004.4 |
| 20260508064512 | 55 | 266 | 1.7 | 2.6 | 0.00 | 0.00 | 0.00 | 73 | 1004.4 |
| 20260508064057 | 55 | 266 | 1.7 | 2.6 | 0.00 | 0.00 | 0.00 | 73 | 1004.4 |
| 20260508063547 | 56 | 266 | 0.9 | 2.6 | 0.00 | 0.00 | 0.00 | 73 | 1004.4 |
| 20260508063007 | 56 | 266 | 0.9 | 2.6 | 0.00 | 0.00 | 0.00 | 73 | 1004.5 |
| 20260508062558 | 56 | 266 | 0.9 | 2.6 | 0.00 | 0.00 | 0.00 | 73 | 1004.5 |
| 20260508062046 | 56 | 266 | 0.9 | 2.6 | 0.00 | 0.00 | 0.00 | 73 | 1004.6 |
| 20260508061505 | 56 | 267 | 1.7 | 2.6 | 0.00 | 0.00 | 0.00 | 73 | 1004.4 |
| 20260508061056 | 56 | 267 | 0.9 | 2.6 | 0.00 | 0.00 | 0.00 | 73 | 1004.5 |
| 20260508060546 | 56 | 267 | 0.9 | 1.7 | 0.00 | 0.00 | 0.00 | 72 | 1004.6 |
| 20260508060002 | 57 | 267 | 0.0 | 2.6 | 0.00 | 0.00 | 0.00 | 72 | 1004.5 |
| 20260508055553 | 57 | 267 | 0.9 | 2.6 | 0.00 | 0.00 | 0.00 | 72 | 1004.6 |
| 20260508055041 | 57 | 266 | 0.9 | 1.7 | 0.00 | 0.00 | 0.00 | 72 | 1004.6 |
| 20260508054503 | 57 | 266 | 0.9 | 1.7 | 0.00 | 0.00 | 0.00 | 72 | 1004.5 |
| 20260508054055 | 57 | 266 | 0.9 | 4.3 | 0.00 | 0.00 | 0.00 | 72 | 1004.5 |
| 20260508053542 | 57 | 266 | 0.9 | 4.3 | 0.00 | 0.00 | 0.00 | 72 | 1004.7 |
| 20260508053004 | 57 | 261 | 0.9 | 3.5 | 0.00 | 0.00 | 0.00 | 72 | 1004.4 |
| 20260508052552 | 57 | 235 | 0.9 | 3.5 | 0.00 | 0.00 | 0.00 | 72 | 1004.5 |
| 20260508052042 | 57 | 311 | 0.9 | 2.6 | 0.00 | 0.00 | 0.00 | 72 | 1004.5 |
| 20260508051504 | 57 | 296 | 0.9 | 2.6 | 0.00 | 0.00 | 0.00 | 72 | 1004.5 |
| 20260508051053 | 57 | 296 | 0.9 | 6.1 | 0.00 | 0.00 | 0.00 | 72 | 1004.4 |
| 20260508050542 | 58 | 281 | 1.7 | 6.1 | 0.00 | 0.00 | 0.00 | 73 | 1004.5 |
| 20260508045549 | 58 | 255 | 0.9 | 3.5 | 0.00 | 0.00 | 0.00 | 73 | 1004.5 |
| 20260508045040 | 58 | 226 | 0.9 | 2.6 | 0.00 | 0.00 | 0.00 | 73 | 1004.5 |
| 20260508044605 | 58 | 226 | 0.9 | 3.5 | 0.00 | 0.00 | 0.00 | 74 | 1004.5 |
| 20260508044050 | 59 | 226 | 1.7 | 3.5 | 0.00 | 0.00 | 0.00 | 74 | 1004.5 |
| 20260508043537 | 59 | 255 | 0.9 | 3.5 | 0.00 | 0.00 | 0.00 | 74 | 1004.6 |
| 20260508043007 | 59 | 269 | 1.7 | 3.5 | 0.00 | 0.00 | 0.00 | 73 | 1004.5 |
| 20260508042558 | 60 | 248 | 0.9 | 3.5 | 0.00 | 0.00 | 0.00 | 73 | 1004.5 |
| 20260508042046 | 60 | 244 | 1.7 | 3.5 | 0.00 | 0.00 | 0.00 | 72 | 1004.4 |
| 20260508041509 | 61 | 275 | 1.7 | 3.5 | 0.00 | 0.00 | 0.00 | 71 | 1004.3 |
| 20260508041056 | 61 | 13 | 0.0 | 0.0 | 0.00 | 0.00 | 0.00 | 71 | 1004.3 |
| 20260508040545 | 61 | 13 | 0.0 | 0.0 | 0.00 | 0.00 | 0.00 | 69 | 1004.2 |
| 20260508040004 | 61 | 13 | 0.0 | 0.0 | 0.00 | 0.00 | 0.00 | 68 | 1004.0 |
| 20260508035555 | 62 | 13 | 0.0 | 0.0 | 0.00 | 0.00 | 0.00 | 68 | 1004.0 |
| 20260508035042 | 62 | 13 | 0.0 | 0.0 | 0.00 | 0.00 | 0.00 | 68 | 1003.9 |
| 20260508034607 | 62 | 13 | 0.0 | 0.0 | 0.00 | 0.00 | 0.00 | 68 | 1003.9 |
| 20260508034048 | 62 | 13 | 0.0 | 0.0 | 0.00 | 0.00 | 0.00 | 68 | 1003.9 |
| 20260508033535 | 63 | 13 | 0.0 | 0.0 | 0.00 | 0.00 | 0.00 | 68 | 1003.9 |
| 20260508033058 | 63 | 13 | 0.0 | 0.0 | 0.00 | 0.00 | 0.00 | 67 | 1003.8 |
| 20260508032547 | 63 | 13 | 0.0 | 0.0 | 0.00 | 0.00 | 0.00 | 66 | 1003.8 |
| 20260508032035 | 63 | 13 | 0.0 | 0.0 | 0.00 | 0.00 | 0.00 | 66 | 1003.8 |
| 20260508031604 | 63 | 13 | 0.0 | 0.0 | 0.00 | 0.00 | 0.00 | 65 | 1003.7 |
| 20260508031046 | 64 | 13 | 0.0 | 0.0 | 0.00 | 0.00 | 0.00 | 65 | 1003.8 |
| 20260508030535 | 64 | 13 | 0.0 | 0.0 | 0.00 | 0.00 | 0.00 | 65 | 1003.7 |
| 20260508025544 | 64 | 13 | 0.0 | 0.0 | 0.00 | 0.00 | 0.00 | 65 | 1003.6 |
| 20260508025032 | 64 | 13 | 0.0 | 0.0 | 0.00 | 0.00 | 0.00 | 65 | 1003.6 |
| 20260508024505 | 64 | 13 | 0.0 | 0.0 | 0.00 | 0.00 | 0.00 | 64 | 1003.7 |
| 20260508024053 | 65 | 13 | 0.0 | 0.0 | 0.00 | 0.00 | 0.00 | 64 | 1003.6 |
| 20260508023542 | 65 | 13 | 0.0 | 0.0 | 0.00 | 0.00 | 0.00 | 62 | 1003.8 |
| 20260508023002 | 65 | 13 | 0.0 | 0.9 | 0.00 | 0.00 | 0.00 | 61 | 1003.7 |
| 20260508022553 | 65 | 13 | 0.0 | 0.9 | 0.00 | 0.00 | 0.00 | 61 | 1003.7 |
| 20260508022041 | 66 | 13 | 0.0 | 0.9 | 0.00 | 0.00 | 0.00 | 61 | 1003.6 |
| 20260508021510 | 66 | 13 | 0.0 | 2.6 | 0.00 | 0.00 | 0.00 | 61 | 1003.6 |
| 20260508021100 | 66 | 13 | 0.9 | 2.6 | 0.00 | 0.00 | 0.00 | 60 | 1003.7 |
| 20260508020551 | 66 | 13 | 0.0 | 1.7 | 0.00 | 0.00 | 0.00 | 60 | 1003.7 |
| 20260508020007 | 66 | 13 | 0.0 | 1.7 | 0.00 | 0.00 | 0.00 | 60 | 1003.7 |
| 20260508015558 | 67 | 5 | 0.0 | 0.9 | 0.00 | 0.00 | 0.00 | 60 | 1003.7 |
| 20260508015047 | 67 | 5 | 0.0 | 1.7 | 0.00 | 0.00 | 0.00 | 59 | 1003.6 |
| 20260508014512 | 67 | 19 | 0.0 | 0.9 | 0.00 | 0.00 | 0.00 | 59 | 1003.7 |
| 20260508014101 | 67 | 25 | 0.0 | 2.6 | 0.00 | 0.00 | 0.00 | 57 | 1003.7 |
| 20260508013546 | 68 | 28 | 0.9 | 2.6 | 0.00 | 0.00 | 0.00 | 58 | 1003.8 |
| 20260508013007 | 68 | 15 | 0.9 | 2.6 | 0.00 | 0.00 | 0.00 | 57 | 1003.8 |
| 20260508012601 | 68 | 360 | 0.9 | 2.6 | 0.00 | 0.00 | 0.00 | 56 | 1003.9 |
| 20260508012046 | 69 | 290 | 0.0 | 2.6 | 0.00 | 0.00 | 0.00 | 56 | 1003.9 |
| 20260508011506 | 69 | 282 | 0.9 | 3.5 | 0.00 | 0.00 | 0.00 | 55 | 1004.0 |
| 20260508011058 | 69 | 266 | 0.9 | 3.5 | 0.00 | 0.00 | 0.00 | 51 | 1003.9 |
| 20260508010545 | 69 | 66 | 0.0 | 0.0 | 0.00 | 0.00 | 0.00 | 53 | 1004.0 |
| 20260508010006 | 70 | 66 | 0.0 | 2.6 | 0.00 | 0.00 | 0.00 | 55 | 1004.1 |
| 20260508005558 | 70 | 65 | 0.0 | 2.6 | 0.00 | 0.00 | 0.00 | 52 | 1004.0 |
| 20260508005043 | 69 | 80 | 0.9 | 2.6 | 0.00 | 0.00 | 0.00 | 54 | 1004.1 |
| 20260508004503 | 69 | 90 | 0.0 | 3.5 | 0.00 | 0.00 | 0.00 | 53 | 1004.1 |
| 20260508004053 | 69 | 11 | 0.9 | 3.5 | 0.00 | 0.00 | 0.00 | 54 | 1004.1 |
| 20260508003540 | 69 | 22 | 1.7 | 3.5 | 0.00 | 0.00 | 0.00 | 54 | 1004.2 |
| 20260508003001 | 69 | 59 | 0.9 | 3.5 | 0.00 | 0.00 | 0.00 | 53 | 1004.2 |
| 20260508002551 | 69 | 94 | 0.0 | 3.5 | 0.00 | 0.00 | 0.00 | 54 | 1004.3 |
| 20260508002040 | 69 | 317 | 0.9 | 3.5 | 0.00 | 0.00 | 0.00 | 54 | 1004.3 |
| 20260508001604 | 69 | 132 | 0.0 | 3.5 | 0.00 | 0.00 | 0.00 | 56 | 1004.3 |
| 20260508001051 | 69 | 327 | 0.9 | 3.5 | 0.00 | 0.00 | 0.00 | 55 | 1004.3 |
| 20260508000538 | 69 | 355 | 0.9 | 3.5 | 0.00 | 0.00 | 0.00 | 56 | 1004.4 |
| 20260508000007 | 69 | 41 | 0.0 | 4.3 | 0.00 | 0.00 | 0.00 | 54 | 1004.4 |
| 20260507235558 | 69 | 46 | 0.9 | 4.3 | 0.00 | 0.00 | 0.00 | 55 | 1004.4 |
| 20260507235046 | 69 | 121 | 0.9 | 5.2 | 0.00 | 0.00 | 0.00 | 54 | 1004.6 |
| 20260507234505 | 69 | 63 | 1.7 | 5.2 | 0.00 | 0.00 | 0.00 | 54 | 1004.6 |
| 20260507234055 | 69 | 139 | 1.7 | 5.2 | 0.00 | 0.00 | 0.00 | 54 | 1004.6 |
| 20260507233544 | 69 | 34 | 1.7 | 4.3 | 0.00 | 0.00 | 0.00 | 56 | 1004.7 |
| 20260507233005 | 68 | 44 | 1.7 | 5.2 | 0.00 | 0.00 | 0.00 | 59 | 1004.7 |
| 20260507232556 | 68 | 25 | 1.7 | 5.2 | 0.00 | 0.00 | 0.00 | 57 | 1004.8 |